This is the latest recevied weather packets stored in our database for station/object KB3VSP. If no packets are shown the sender has not sent any weather packets the latest 10 day(s).
| Time | Temp. | Humidity | Pressure | Rain* | Wind** | Luminosity | Snow |
|---|---|---|---|---|---|---|---|
| 1777497653 | 12.78° C | 99% | 1007 hPa | 0 mm | - | 38 W/m² | - |
| 1777497349 | 13.33° C | 99% | 1007 hPa | 0 mm | - | 21 W/m² | - |
| 1777497045 | 13.33° C | 99% | 1007.2 hPa | 0 mm | - | 35 W/m² | - |
| 1777496743 | 13.33° C | 99% | 1007 hPa | 0 mm | - | 40 W/m² | - |
| 1777496439 | 13.33° C | 99% | 1006.6 hPa | 0 mm | - | 50 W/m² | - |
| 1777496136 | 13.89° C | 99% | 1006.6 hPa | 0 mm | - | 47 W/m² | - |
| 1777495832 | 13.89° C | 99% | 1006.4 hPa | 0 mm | - | 88 W/m² | - |
| 1777495528 | 13.89° C | 99% | 1006.9 hPa | 1.27 mm | - | 134 W/m² | - |
| 1777495224 | 13.33° C | 99% | 1006.4 hPa | 3.05 mm | - | 108 W/m² | - |
| 1777494922 | 13.33° C | 99% | 1006.5 hPa | 3.05 mm | - | 65 W/m² | - |
| 1777494619 | 13.33° C | 99% | 1006.9 hPa | 1.78 mm | - | 52 W/m² | - |
| 1777494316 | 13.33° C | 99% | 1006.8 hPa | 1.27 mm | - | 63 W/m² | - |
| 1777494012 | 13.33° C | 99% | 1006.8 hPa | 1.27 mm | - | 44 W/m² | - |
| 1777493711 | 13.33° C | 99% | 1006.8 hPa | 0 mm | - | 28 W/m² | - |
| 1777493409 | 13.33° C | 99% | 1006.7 hPa | 0 mm | - | 20 W/m² | - |
| 1777493104 | 13.33° C | 99% | 1006.9 hPa | 0 mm | - | 30 W/m² | - |
| 1777492801 | 13.89° C | 99% | 1006.9 hPa | 0 mm | - | 43 W/m² | - |
| 1777492496 | 13.89° C | 99% | 1006.5 hPa | 0 mm | - | 42 W/m² | - |
| 1777492193 | 13.89° C | 99% | 1006.8 hPa | 0 mm | - | 46 W/m² | - |
| 1777491890 | 13.89° C | 99% | 1006.8 hPa | 0 mm | - | 106 W/m² | - |
| 1777491587 | 13.89° C | 99% | 1006.7 hPa | 0 mm | - | 114 W/m² | - |
| 1777491284 | 13.89° C | 99% | 1006.9 hPa | 0 mm | - | 41 W/m² | - |
| 1777490981 | 13.89° C | 99% | 1007 hPa | 0 mm | - | 98 W/m² | - |
| 1777490677 | 13.89° C | 99% | 1006.9 hPa | 0 mm | - | 95 W/m² | - |
| 1777490372 | 13.89° C | 99% | 1006.6 hPa | 0 mm | - | 119 W/m² | - |
* Rain latest hour (hover to see other rain measurements)
** Current wind speed in m/s (hover to see current wind gust speed)